CST,Max TemperatureF,Mean TemperatureF,Min TemperatureF,Max Dew PointF,MeanDew PointF,Min DewpointF,Max Humidity, Mean Humidity, Min Humidity, Max Sea Level PressureIn, Mean Sea Level PressureIn, Min Sea Level PressureIn, Max VisibilityMiles, Mean VisibilityMiles, Min VisibilityMiles, Max Wind SpeedMPH, Mean Wind SpeedMPH, Max Gust SpeedMPH,PrecipitationIn, CloudCover, Events, WindDirDegrees
2014-1-1,12,9,6,5,3,0,79,75,67,30.31,30.23,30.16,10,7,0,16,11,21,0.00,7,Rain-Snow,25
2014-1-2,6,0,-7,0,-5,-15,77,66,56,30.46,30.38,30.29,10,10,7,16,11,21,0.00,3,Snow,327
2014-1-3,32,12,-9,21,4,-17,78,66,57,30.42,30.03,29.65,10,10,9,26,11,36,0.00,2,Snow,184
2014-1-4,33,22,12,27,14,1,80,67,60,30.13,29.89,29.65,10,10,8,23,16,32,0.00,7,Rain,299
2014-1-5,10,0,-9,1,-11,-26,67,53,38,30.39,30.26,30.13,10,10,9,30,20,41,0.00,5,Snow,335
2014-1-6,-2,-8,-13,-17,-21,-27,65,53,45,30.41,30.37,30.30,10,10,6,28,19,34,0.00,5,,288
2014-1-7,15,3,-9,1,-5,-18,73,62,53,30.30,30.19,30.08,10,10,10,10,6,14,0.00,5,Snow,146
2014-1-8,14,10,5,1,-1,-4,79,65,53,30.45,30.38,30.24,10,10,10,8,4,,0.00,5,,43
2014-1-9,24,14,3,21,8,-4,86,73,66,30.43,30.22,30.02,10,10,4,10,7,,0.00,7,,139
2014-1-10,35,30,24,34,31,23,100,95,86,30.01,29.70,29.52,7,2,0,12,8,17,0.00,8,Fog-Rain,158
2014-1-11,35,30,24,32,26,21,93,85,65,29.84,29.70,29.53,10,8,3,23,13,28,0.00,4,,273
2014-1-12,48,37,26,32,29,25,93,67,50,29.80,29.59,29.47,10,10,4,21,12,32,0.00,1,,211
2014-1-13,41,36,32,32,28,21,87,73,52,29.79,29.71,29.59,10,10,10,22,11,31,0.00,4,,268
2014-1-14,39,28,17,34,19,5,81,64,51,30.12,29.88,29.60,10,10,4,32,19,44,0.00,7,Rain,299
2014-1-15,30,21,12,18,7,3,73,58,43,30.18,30.03,29.70,10,10,8,20,13,32,0.00,6,Snow,263
2014-1-16,39,24,8,30,17,-2,93,64,48,29.94,29.70,29.59,10,8,0,31,16,50,0.02,7,Rain-Snow,288
2014-1-17,19,12,5,9,2,-4,79,66,57,30.06,30.01,29.91,10,10,2,20,14,25,0.00,4,Rain-Snow,292
2014-1-18,37,24,10,34,17,3,87,73,50,30.02,29.76,29.53,10,9,2,25,13,38,0.00,6,Rain-Snow,269
2014-1-19,50,32,15,28,23,10,86,65,43,29.98,29.76,29.61,10,10,10,20,12,26,0.00,1,Snow,245
2014-1-20,42,27,10,32,25,5,87,77,57,30.28,29.95,29.78,10,8,0,29,11,39,0.00,4,Rain-Snow,306
2014-1-21,12,4,-4,3,-6,-13,79,61,52,30.45,30.30,30.07,10,10,2,25,13,34,0.00,4,Rain-Snow,298
2014-1-22,19,8,-2,12,2,-13,74,61,52,30.47,30.14,29.97,10,10,3,28,15,38,0.00,7,Rain-Snow,307
2014-1-23,6,0,-5,-8,-12,-17,66,58,47,30.75,30.64,30.48,10,10,10,18,14,29,0.00,2,,295
2014-1-24,41,21,3,34,8,-8,76,49,41,30.50,29.95,29.59,10,10,10,30,16,40,0.00,6,Rain-Snow,229
2014-1-25,41,29,17,34,7,-8,87,47,24,29.98,29.83,29.57,10,10,3,32,18,41,0.00,5,Rain-Snow,306
2014-1-26,46,26,5,32,17,-13,75,54,35,30.17,29.64,29.41,10,10,1,40,21,55,0.00,6,Rain-Snow,294
2014-1-27,6,2,-2,-11,-15,-18,66,46,34,30.48,30.38,30.19,10,10,10,26,18,37,0.00,1,,315
2014-1-28,17,5,-7,-8,-11,-15,71,50,30,30.46,30.36,30.24,10,10,10,21,8,24,0.00,0,,269
2014-1-29,37,20,3,10,2,-9,62,44,26,30.24,30.02,29.74,10,10,10,25,11,36,0.00,0,,208
2014-1-30,41,26,12,27,13,3,74,52,38,30.06,29.72,29.51,10,10,6,28,20,37,0.00,5,Rain-Snow,258
2014-1-31,17,12,8,5,0,-4,67,58,45,30.20,30.09,29.99,10,9,3,16,9,24,0.00,6,Rain-Snow,34